Find SDA-1676

NORAD ID: 65986 Int'l Des: 2025-230 Owner: SDA Country: US operational
LEOCIRCULARPOLAR

現在のビュー

3D地球を読み込み中...

About SDA-1676

SDA-1676 (NORAD 65986) is a satellite launched Oct 15, 2025 by SDA of US. It operates in LEO, CIRCULAR, POLAR orbit with a mass of 400.00 kg.

次回通過

Passes for default location (London). Set your location on the main map for personalized predictions.

高度履歴

Loading altitude history...

軌道要素

1 65986U 25230N 26167.83155477 .00000064 00000-0 51499-4 0 9990
2 65986 81.3007 212.8094 0001511 115.3327 244.7983 13.78916233 33715
Epoch: Jun 16, 2026 • Age: 17 hours

現在のステータス

高度 973.4 km
速度 7.36 km/s
衛星直下点 -14.32°S, 59.92°W
打ち上げ日 Oct 15, 2025
運用期間 0.6 years
タイプ other

技術仕様

分類 Payload
質量 400.00 kg
乾燥質量 400.00 kg
総質量 400.00 kg
長さ 0.60 m
直径 0.40 m
スパン 3.60 m
形状 Box + panels
製造者 LMSSD/TERRAN
バスタイプ LM-T1TL
フェーズステータス In Orbit
所有者/国 SDA/US

Most Searched